sat.trackr.live / text

‹ back to catalog

STARLINK-35423

NORAD 65873 · 2025-223V

PAYLOAD ACTIVE UNKNOWN

§ Identity

Operator
Country
US
Launch date
2025-10-03
Launch site
AFWTR
Launch vehicle
Mass (kg)
RCS (m²)

Purposes: comms

External: N2YO · Heavens-Above · Gunter

§ Orbital elements

Epoch: 2026-09-20T20:46:31.115424Z

Period
93.85 min
Inclination
53.1583°
Eccentricity
0.0000807
Mean motion
15.34398766 rev/d
Perigee alt
462.2 km
Apogee alt
463.3 km
Semi-major
6,840.8 km
B*
2.1545e-4
RAAN
103.6515°
Arg perigee
119.4656°
Mean anomaly
240.6427°
Rev number
5,414

§ Raw data

STARLINK-354231 65873U 25223V   26263.86563791  .00006910  00000+0  21545-3 0  99922 65873  53.1583 103.6515 0000807 119.4656 240.6427 15.34398766 54145

JSON: /api/v1/satellites/65873 · /tle

For live sub-satellite position, see the globe view (requires WebGL).

§ Visibility from observer

Set your observer location to see the next 7 days of passes ≥ 10°. The values pass through the URL so the page stays shareable.

No JS? Fill the form by hand. The geolocation button needs JavaScript.